World > North America > United States > Wisconsin

Glidden, Wisconsin Regional Weather

Lat: 46.13N, Lon: 90.58W
Wx Zone: WIZ003
Feedback

Glidden, WI Regional Weather

Expires:202002211200;;871671
ASUS43 KMKX 211120
RWRWI 

WISCONSIN REGIONAL WEATHER ROUNDUP
NATIONAL WEATHER SERVICE MILWAUKEE/SULLIVAN WI
500 AM CST FRI FEB 21 2020

NOTE: "FAIR" INDICATES FEW OR NO CLOUDS BELOW 12,000 FEET WITH NO
SIGNIFICANT WEATHER AND/OR OBSTRUCTIONS TO VISIBILITY.


WIZ003>005-009-010-017-018-211200-
NORTH CENTRAL WISCONSIN
  
CITY           SKY/WX    TMP DP  RH WIND       PRES   REMARKS
MANITOWISH WTR NOT AVBL                                               
ARBOR VITAE    FAIR       4   0  81 SW5       30.25F WCI  -5          
WOODRUFF       FAIR       4   0  81 SW5       30.25F WCI  -5          
RHINELANDER    FAIR       2  -4  76 SW9       30.28F WCI -13          
EAGLE RIVER    FAIR       4  -1  77 SW3       30.24F                  
LAND O LAKES   FAIR       5   0  78 SW3       30.25S                  
PHILLIPS       FAIR       2  -4  77 S6        30.28F WCI  -9          
TOMAHAWK       FAIR       1  -5  76 CALM      30.30F                  
MEDFORD        FAIR       1  -5  75 S9        30.31F WCI -14          
MERRILL        FAIR       2  -5  70 SW5       30.35F WCI  -7          
$$
 

SKY/WX - Weather  TMP - Temperature  DP - Dew Point  RH - Relative Humidity
WIND - Wind Direction/Speed PRES - Barometric Pressure VSB - Visibility
WCI - Wind Chill Index E13G22 Wind - East Wind 13 mph/Gusts of 22 mph
Glidden Weather Map
What is UTC time?